Content
SEND FEEDBACK

Daily
Averages
Monthly
Summary
United States of America

INARAJAN, GUAM


Home > North America > United States > Guam
Elevation: 280 feet     Latitude: 13 18N     Longitude: 144 44E

WEATHER
 
SELECT A DAY
Number of Records: 356,513;   Date Range: 1/1/95 - 12/18/14
 
SHARE

PRINT THIS DATA

[ ← Previous Day ]
WEATHER ALMANAC - JANUARY 7, 2013
[ Next Day → ]
[ °C ]   °F
Weather ElementAverageHighLow
Temperature78.2 °F82.4 °F (2:30 pm)71.6 °F (10:41 am)
Dewpoint72.6 °F75.2 °F (12:50 pm)68 °F (10:41 am)
Humidity83 %94 % (12:50 pm)69 % (9:55 am)
Barometer29.81 in29.87 in (9:55 am)29.76 in (3:27 pm)
Wind Speed17.9 mph29.9 mph (10:34 pm)
Wind Gust34.5 mph (10:30 pm)
Weather ElementAverage
Visibility8.2 mi
Wind DirectionENE (60.5 °)

Weather ElementTotal
Precipitation0.14 in
Cooling Degree Days12 (Base 65)
Growing Degree Days27 (Base 50)
Averaged from 76 records on January 7, 2013
WEATHER CONDITIONS BREAKOUT
WIND DIRECTION BREAKOUT
WEATHER BY HOUR - JANUARY 7, 2013
[ °C ]   °F
Local TimeTemperatureDewpointHumidityBarometerVisibilityWind DirectionWind SpeedGust SpeedPrecipitationEventsConditions
12:31 AM77.0 °F71.6 °F83 %29.81 in10.0 miENE (60°)18.4 mphMostly Cloudy
12:33 AM78.8 °F71.6 °F78 %29.81 in10.0 miENE (60°)18.4 mphScattered Clouds
12:37 AM77.0 °F71.6 °F83 %29.81 in10.0 miENE (70°)16.1 mphMostly Cloudy
12:48 AM78.8 °F73.4 °F83 %29.81 in10.0 miENE (60°)18.4 mph26.5 mphScattered Clouds
12:55 AM77.7 °F72.3 °F83 %29.81 in10.0 miENE (60°)17.3 mph24.2 mphMostly Cloudy
1:45 AM77.0 °F71.6 °F83 %29.80 in10.0 miENE (70°)23.0 mph27.6 mphMostly Cloudy
1:47 AM78.8 °F71.6 °F78 %29.80 in10.0 miENE (60°)19.6 mph27.6 mphScattered Clouds
1:55 AM77.4 °F72.1 °F84 %29.80 in10.0 miENE (60°)20.7 mph27.6 mphScattered Clouds
2:55 AM77.0 °F72.1 °F85 %29.78 in10.0 miENE (60°)16.1 mph23.0 mphMostly Cloudy
3:12 AM77.0 °F71.6 °F83 %29.78 in10.0 miENE (60°)15.0 mphMostly Cloudy
3:45 AM77.0 °F71.6 °F83 %29.78 in10.0 miENE (70°)19.6 mph27.6 mphLight Drizzle
3:55 AM76.5 °F70.9 °F83 %29.78 in10.0 miENE (70°)20.7 mph27.6 mph0.00 inRainLight Rain
3:58 AM77.0 °F69.8 °F78 %29.78 in10.0 miENE (70°)20.7 mphMostly Cloudy
4:04 AM77.0 °F69.8 °F78 %29.79 in10.0 miEast (80°)20.7 mph26.5 mphMostly Cloudy
4:55 AM77.5 °F69.6 °F76 %29.80 in10.0 miENE (70°)17.3 mph0.00 inClear
5:55 AM77.7 °F70.0 °F77 %29.81 in10.0 miENE (70°)18.4 mphScattered Clouds
6:55 AM77.0 °F68.5 °F75 %29.83 in10.0 miEast (80°)16.1 mphClear
7:55 AM79.2 °F70.2 °F74 %29.85 in10.0 miENE (60°)16.1 mphClear
9:55 AM81.9 °F70.9 °F69 %29.87 in10.0 miENE (60°)15.0 mphPartly Cloudy
10:41 AM71.6 °F68.0 °F88 %29.87 in9.0 miEast (80°)18.4 mph25.3 mphMostly Cloudy
10:48 AM75.2 °F69.8 °F83 %29.87 in9.0 miEast (80°)13.8 mph25.3 mphMostly Cloudy
10:55 AM79.5 °F72.5 °F79 %29.86 in10.0 miENE (70°)15.0 mphMostly Cloudy
11:55 AM80.1 °F73.0 °F79 %29.83 in10.0 miENE (60°)15.0 mphScattered Clouds
12:26 PM77.0 °F71.6 °F83 %29.83 in2.0 miENE (70°)25.3 mph31.1 mphRainRain
12:27 PM77.0 °F71.6 °F83 %29.83 in1.5 miEast (80°)24.2 mph31.1 mphRainRain
12:29 PM77.0 °F73.4 °F89 %29.83 in1.2 miEast (90°)19.6 mph31.1 mphRainRain
12:31 PM77.0 °F73.4 °F89 %29.83 in1.0 miEast (80°)18.4 mph31.1 mphRainRain
12:32 PM77.0 °F73.4 °F89 %29.83 in1.0 miEast (80°)18.4 mph31.1 mphRainLight Rain
12:33 PM77.0 °F73.4 °F89 %29.83 in1.0 miEast (80°)17.3 mph31.1 mphRainLight Rain
12:35 PM77.0 °F73.4 °F89 %29.82 in1.2 miEast (80°)15.0 mph31.1 mphRainLight Rain
12:36 PM77.0 °F73.4 °F89 %29.82 in1.5 miENE (70°)15.0 mph31.1 mphRainLight Rain
12:37 PM77.0 °F73.4 °F89 %29.82 in2.0 miENE (70°)15.0 mphRainLight Rain
12:38 PM77.0 °F73.4 °F89 %29.82 in2.5 miENE (70°)12.7 mphRainLight Rain
12:39 PM77.0 °F73.4 °F89 %29.82 in3.0 miENE (60°)12.7 mphRainLight Rain
12:44 PM77.0 °F73.4 °F89 %29.82 in8.0 miENE (60°)13.8 mphOvercast
12:46 PM77.0 °F73.4 °F89 %29.82 in10.0 miENE (70°)13.8 mphOvercast
12:49 PM77.0 °F73.4 °F89 %29.81 in10.0 miENE (70°)12.7 mphOvercast
12:50 PM77.0 °F75.2 °F94 %29.81 in10.0 miENE (60°)13.8 mphOvercast
12:55 PM78.4 °F75.0 °F89 %29.81 in10.0 miENE (60°)15.0 mph0.06 inMostly Cloudy
1:55 PM82.2 °F74.1 °F76 %29.78 in10.0 miENE (60°)17.3 mphPartly Cloudy
2:30 PM82.4 °F73.4 °F74 %29.77 in10.0 miNE (50°)18.4 mphMostly Cloudy
2:34 PM82.4 °F73.4 °F74 %29.77 in10.0 miNE (50°)19.6 mphScattered Clouds
2:35 PM82.4 °F73.4 °F74 %29.77 in10.0 miNE (50°)17.3 mphMostly Cloudy
2:42 PM82.4 °F73.4 °F74 %29.77 in10.0 miNE (50°)19.6 mphScattered Clouds
2:55 PM82.4 °F73.4 °F74 %29.77 in10.0 miENE (60°)18.4 mphScattered Clouds
3:27 PM82.4 °F73.4 °F74 %29.76 in10.0 miNE (50°)13.8 mphMostly Cloudy
3:55 PM82.4 °F73.8 °F75 %29.77 in10.0 miNE (50°)19.6 mphMostly Cloudy
4:05 PM80.6 °F73.4 °F79 %29.77 in10.0 miNE (50°)17.3 mphMostly Cloudy
4:55 PM81.3 °F72.5 °F74 %29.78 in10.0 miNE (50°)19.6 mphScattered Clouds
5:12 PM80.6 °F73.4 °F79 %29.78 in10.0 miNE (50°)16.1 mphMostly Cloudy
5:25 PM80.6 °F73.4 °F79 %29.79 in10.0 miNE (50°)16.1 mphMostly Cloudy
5:29 PM80.6 °F73.4 °F79 %29.79 in10.0 miNE (50°)19.6 mphMostly Cloudy
5:34 PM80.6 °F73.4 °F79 %29.79 in10.0 miNE (50°)16.1 mphMostly Cloudy
5:55 PM79.9 °F73.4 °F80 %29.80 in10.0 miNE (40°)17.3 mphScattered Clouds
6:46 PM78.8 °F71.6 °F78 %29.81 in10.0 miNE (50°)17.3 mph24.2 mphRainLight Rain
6:55 PM78.8 °F71.6 °F78 %29.81 in10.0 miNE (50°)17.3 mph0.00 inScattered Clouds
7:55 PM79.2 °F71.6 °F78 %29.82 in10.0 miNE (50°)18.4 mphMostly Cloudy
8:55 PM79.3 °F71.8 °F78 %29.82 in10.0 miNE (40°)20.7 mphOvercast
9:55 PM79.5 °F72.3 °F79 %29.83 in10.0 miNE (40°)20.7 mphOvercast
10:03 PM78.8 °F71.6 °F78 %29.83 in10.0 miNE (50°)17.3 mphLight Drizzle
10:12 PM78.8 °F73.4 °F83 %29.83 in10.0 miNE (40°)18.4 mphMostly Cloudy
10:15 PM78.8 °F73.4 °F83 %29.84 in10.0 miNE (40°)21.9 mph27.6 mphOvercast
10:21 PM78.8 °F73.4 °F83 %29.83 in10.0 miNE (40°)20.7 mph27.6 mphLight Drizzle
10:30 PM78.8 °F73.4 °F83 %29.84 in10.0 miENE (70°)21.9 mph34.5 mphOvercast
10:34 PM78.8 °F73.4 °F83 %29.84 in5.0 miENE (70°)29.9 mph34.5 mphRainLight Rain
10:40 PM75.2 °F73.4 °F94 %29.85 in2.5 miENE (70°)20.7 mph34.5 mphRainRain
10:41 PM75.2 °F73.4 °F94 %29.85 in2.0 miENE (70°)18.4 mph33.4 mphRainRain
10:43 PM75.2 °F73.4 °F94 %29.85 in2.5 miENE (70°)18.4 mphRainLight Rain
10:49 PM75.2 °F73.4 °F94 %29.84 in3.0 miENE (70°)16.1 mphRainRain
10:55 PM75.4 °F73.6 °F94 %29.84 in7.0 miENE (60°)17.3 mph24.2 mph0.07 inRainLight Rain
10:57 PM75.2 °F73.4 °F94 %29.84 in9.0 miENE (60°)17.3 mph24.2 mphOvercast
11:07 PM75.2 °F73.4 °F94 %29.83 in10.0 miNE (50°)15.0 mphMostly Cloudy
11:26 PM77.0 °F73.4 °F89 %29.83 in10.0 miNE (40°)16.1 mphMostly Cloudy
11:33 PM77.0 °F73.4 °F89 %29.83 in10.0 miNE (40°)20.7 mph29.9 mphRainLight Rain
11:50 PM75.2 °F73.4 °F94 %29.82 in10.0 miNE (40°)19.6 mphMostly Cloudy
11:55 PM76.1 °F73.4 °F91 %29.83 in10.0 miNE (40°)17.3 mph0.01 inMostly Cloudy
Hourly data recorded from PGUA, located miles away from Inarajan, Guam







STORIES FROM OUR PARTNERS